Location: Clanezzo
(45.7500°N, 9.6000°E)
Time: 01:22:22
(UTC+00:00)

Akebono - Pass Details

Date: 12 May 2021
Orbit: 255 x 2884 km, 75.0° (Epoch: 23 June)

Event Time Altitude Azimuth Distance (km) Brightness Sun altitude
Rises 20:05:09 0° 340° (NNW) 2,070 9.5 -12.5°
Reaches altitude 10° 20:07:10 10° 342° (NNW) 1,113 7.9 -12.7°
Maximum altitude 20:09:23 80° 67° (ENE) 267 3.6 -13.0°
Enters shadow 20:10:01 39° 152° (SSE) 406 4.2 -13.1°
